Regional Weather Roundup
Issued by NWS

Home | Current Version | Previous Version | Text Only | Print | Product List | Glossary Off
Versions: 1 2 3 4 5 6 7 8 9 10 11 12 13 14 15 16 17 18 19 20 21 22 23 24 25 26 27 28 29 30 31 32 33 34 35 36 37 38 39 40 41 42 43 44 45 46 47 48 49 50

000
ASUS43 KTOP 210659
RWRKS

WEATHER ROUNDUP FOR KANSAS
NATIONAL WEATHER SERVICE GOODLAND KS
200 AM CDT SUN SEP 21 2014

NOTE:  "FAIR" INDICATES FEW OR NO CLOUDS BELOW 12,000 FEET WITH NO
SIGNIFICANT WEATHER AND/OR OBSTRUCTIONS TO VISIBILITY.

KSZ001>006-013>018-027>032-041>047-210800-
NORTHWEST KANSAS

CITY           SKY/WX    TMP DP  RH WIND       PRES   REMARKS
GOODLAND       PTCLDY    62  48  60 NE14      30.28R
HAYS           CLEAR     68  54  60 N16       30.15R
HILL CITY      CLEAR     65  49  56 N8        30.19R
RUSSELL        CLEAR     67  59  75 N14       30.12R
$$

KSZ061>065-074>080-084>089-210800-
SOUTHWEST KANSAS

CITY           SKY/WX    TMP DP  RH WIND       PRES   REMARKS
DODGE CITY     MOCLDY    69  64  84 N8        30.14R
ELKHART          N/A     68  60  75 N6          N/A
GARDEN CITY    CLEAR     65  59  81 NE12      30.16S
GREAT BEND     CLEAR     64  61  88 CALM      30.11R
LIBERAL        CLEAR     73  63  68 NE9       30.15S
$$

KSZ066>073-081>083-090>101-210800-
SOUTHEAST KANSAS

CITY           SKY/WX    TMP DP  RH WIND       PRES   REMARKS
CHANUTE        CLOUDY    76  69  79 SW8       30.04R
HUTCHINSON     PTCLDY    71  66  84 E8        30.07R
NEWTON         CLOUDY    70  63  78 CALM      30.10R
PARSONS        CLOUDY    74  70  87 W3        30.04R
WICHITA INTL   CLOUDY    75  69  81 E3        30.06R
WICHITA JABRA  CLOUDY    72  67  84 N3        30.06R
WICHITA MCCONL CLOUDY    73  70  88 N6        30.07R FOG
WINFIELD       CLOUDY    73  68  84 NW3       30.06R
$$

KSZ007>012-019>026-033>040-048>060-102>105-210800-
NORTHEAST KANSAS

CITY           SKY/WX    TMP DP  RH WIND       PRES   REMARKS
CONCORDIA      CLEAR     65  52  62 N8        30.12R
EMPORIA        PTCLDY    67  66  97 W6        30.05R
LAWRENCE       FOG       62  60  93 NW10      30.04R VSB 1/4
MANHATTAN      CLEAR     70  58  65 N12       30.07R
OLATHE IND     CLEAR     68  66  93 W6        30.02S
OLATHE EXE     CLEAR     69  67  93 W6        30.01R
SALINA         CLEAR     68  65  90 NW5       30.09R
TOPEKA BILLARD CLEAR     69  65  86 N15       30.04R
TOPEKA FORBES  CLEAR     66  64  93 NW9       30.05R
$$



USA.gov is the U.S. government's official web portal to all federal, state and local government web resources and services.